Lobo

Go HERE for most recent data if this page is not up to date.

Jump to table bottom
Date/Time Temp deg F RH % 24 Hr Snow (in) Snow Depth (in) H2O (in)
07/20 06:00 59.1 38 "NAN" 0.0 0.00
07/20 05:00 59.4 37 "NAN" -0.3 0.00
07/20 04:00 58.5 37 "NAN" -0.7 0.00
07/20 03:00 59.6 39 "NAN" -0.7 0.00
07/20 02:00 59.5 36 "NAN" -0.8 0.00
07/20 01:00 59.9 34 "NAN" -0.7 0.00
07/20 00:00 60.7 32 "NAN" -0.1 0.00
07/19 23:00 60.6 29 "NAN" -0.3 0.00
07/19 22:00 61.0 32 "NAN" -0.2 0.00
07/19 21:00 62.6 35 "NAN" -0.4 0.00
07/19 20:00 64.7 29 "NAN" -0.2 0.00
07/19 19:00 67.2 27 "NAN" 0.2 0.00
07/19 18:00 69.1 26 "NAN" 0.0 0.00
07/19 17:00 69.1 23 "NAN" 0.2 0.00
07/19 16:00 69.2 26 "NAN" 0.1 0.00
07/19 15:00 70.9 26 "NAN" -0.6 0.00
07/19 14:00 70.1 27 "NAN" 0.1 0.00
07/19 13:00 70.2 32 "NAN" 0.2 0.00
07/19 12:00 67.7 29 "NAN" -0.0 0.00
07/19 11:00 65.9 34 "NAN" 0.0 0.00
07/19 10:00 64.2 38 "NAN" 0.3 0.00
07/19 09:00 62.5 43 "NAN" -0.1 0.00
07/19 08:00 60.3 44 "NAN" 0.2 0.00
07/19 07:00 58.4 48 "NAN" -0.2 0.00
07/19 06:00 57.4 46 "NAN" -0.2 0.00
07/19 05:00 57.9 42 "NAN" -0.1 0.00
07/19 04:00 58.8 44 "NAN" -0.3 0.00
07/19 03:00 59.3 42 "NAN" -0.4 0.00
07/19 02:00 59.1 45 "NAN" -0.5 0.00
07/19 01:00 60.5 47 "NAN" -0.4 0.00
07/19 00:00 61.7 41 "NAN" -0.5 0.00
.